[[{"header":{"parameterUnit":"m.s-1","parameterCategory":1,"la1":30.2991,"la2":30.254,"lo1":-89.0895,"lo2":-89.0444,"dy":0.0017,"dx":0.0017,"nx":28,"ny":28,"refTime":"2025-06-14T21:00:00:Z","depth":0,"parameterNumber":2,"parameterNumberName":"U-component_of_WINDS"},"data":[0,0,0,0,0,0,0,0,0,0,0,0,0,0,0,0,0,0,0,0,0,0,0,0,0,0,0,0,0,0,0,0,0,0,0,0,0,0,0,0,0,0,0,0,0,0,0,0,0,0,0,0,0,0,0,0,0,0,1.4173,1.4174,0,1.4251,1.4252,1.4253,1.4291,1.4291,1.4291,1.4291,1.4373,1.4375,1.4377,0,0,0,0,0,0,0,0,0,0,0,0,0,1.4058,1.406,1.4173,1.4174,1.4175,1.4251,1.4252,1.4253,1.4291,1.4291,1.4291,1.4291,1.4372,1.4375,1.4377,0,0,0,0,0,0,0,0,0,0,0,0,0,1.4119,1.4061,1.4173,1.4203,1.4206,1.4251,1.4252,1.4254,1.4291,1.4291,1.4291,1.4291,1.4371,1.4374,1.4378,1.4399,0,0,1.4388,1.4389,0,0,0,0,0,0,0,0,1.4116,1.4124,1.4198,1.4201,1.4205,1.4261,1.4242,1.4302,1.4291,1.4259,1.4291,1.4291,1.4336,1.4342,1.4357,1.4403,1.4406,1.4388,1.439,1.4391,1.4392,0,0,0,0,0,0,0,1.4112,1.412,1.4204,1.4199,1.4203,1.4213,1.4222,1.4253,1.4297,1.4262,1.4264,1.4273,1.4338,1.4353,1.4359,1.4407,1.4388,1.4391,1.4393,1.4394,1.4475,1.4476,0,0,0,0,0,0,1.4102,1.4117,1.4202,1.4207,1.4159,1.4215,1.4225,1.4243,1.4296,1.4304,1.4273,1.4275,1.4348,1.4355,1.4362,1.4391,1.4391,1.4394,1.4396,1.4475,1.4475,1.4476,0,0,0,0,0,0,1.41,1.4109,1.4199,1.4162,1.4174,1.4217,1.4238,1.4245,1.4261,1.4305,1.4313,1.4281,1.4348,1.4357,1.4389,1.4394,1.4396,1.4399,1.4475,1.4475,1.4476,1.4448,0,0,0,0,0,0,1.4096,1.4108,1.4116,1.4162,1.4176,1.4224,1.4238,1.4246,1.4266,1.4269,1.4315,1.4322,1.4349,1.4384,1.4393,1.4399,1.4402,1.4475,1.4475,1.4475,1.4449,1.4447,1.4446,0,0,0,0,0,1.4092,1.4106,1.4116,1.4127,1.4187,1.4224,1.4232,1.4262,1.4266,1.4275,1.4304,1.4321,1.4392,1.4387,1.4397,1.4404,1.4475,1.4475,1.4475,1.4449,1.4448,1.4446,0,0,0,0,0,0,1.406,1.4112,1.4125,1.4154,1.4184,1.423,1.4242,1.4259,1.4289,1.429,1.4327,1.4337,1.4366,1.4388,1.4382,1.4428,1.4435,1.4437,1.4412,1.4411,1.4409,1.4404,1.4404,0,0,0,0,0,1.4056,1.4081,1.4126,1.4147,1.4162,1.4199,1.4216,1.4237,1.427,1.4283,1.4314,1.4346,1.4376,1.4394,1.4424,1.4452,1.4463,1.4462,1.4461,1.4459,1.4461,1.4478,1.4478,1.4477,1.4477,1.4477,0,0,1.4049,1.408,1.4094,1.4142,1.4167,1.4193,1.421,1.4236,1.4256,1.4287,1.4319,1.4343,1.4381,1.4411,1.4426,1.4431,1.4464,1.446,1.4459,1.4461,1.4479,1.4479,1.4479,1.4477,1.4477,1.4477,0,0,1.4048,1.4074,1.4095,1.4121,1.416,1.4185,1.4189,1.4233,1.425,1.4283,1.4307,1.4331,1.4381,1.4408,1.4428,1.4437,1.4455,1.4446,1.4439,1.4456,1.4456,1.4456,1.446,1.4461,1.4448,1.4448,1.4448,0,1.4034,1.4073,1.4104,1.4129,1.415,1.4179,1.42,1.4224,1.427,1.4284,1.4289,1.4353,1.438,1.4417,1.442,1.4435,1.4442,1.4441,1.4453,1.4454,1.4454,1.4459,1.446,1.4446,1.4446,1.4447,1.4447,0,1.4054,1.4081,1.4093,1.4137,1.4159,1.4182,1.4217,1.4236,1.4254,1.4279,1.4312,1.4346,1.4383,1.4394,1.4412,1.4434,1.4435,1.4446,1.4454,1.4453,1.4457,1.4459,1.4444,1.4445,1.4445,1.4446,0,0,1.4036,1.4096,1.41,1.4121,1.4166,1.4187,1.4212,1.4248,1.4264,1.4295,1.4317,1.4359,1.4369,1.4392,1.4414,1.4428,1.4434,1.4437,1.4438,1.4435,1.446,1.4452,1.4453,1.4445,1.4446,1.4446,1.4457,0,1.4042,1.4087,1.4115,1.415,1.4175,1.4203,1.4225,1.4255,1.4279,1.4305,1.4331,1.436,1.4372,1.4385,1.4401,1.443,1.4439,1.4429,1.4467,1.4468,1.4456,1.4455,1.4446,1.4455,1.4459,1.4459,1.4459,0,1.4055,1.4085,1.4121,1.4164,1.4175,1.4194,1.423,1.4254,1.4289,1.4306,1.4331,1.4353,1.4381,1.4386,1.4426,1.4418,1.4436,1.4452,1.4453,1.4458,1.4463,1.446,1.4458,1.4459,1.4462,1.4462,1.4462,0,1.4037,1.4087,1.4116,1.4132,1.4182,1.4195,1.4217,1.4252,1.4272,1.4303,1.4317,1.4351,1.437,1.4396,1.4427,1.4428,1.4464,1.4472,1.4479,1.4478,1.4485,1.4484,1.4486,1.4496,1.4496,1.4496,1.4496,0,1.4041,1.4062,1.4109,1.4126,1.4151,1.4184,1.4208,1.4232,1.4263,1.4286,1.4313,1.4334,1.4373,1.44,1.4424,1.4454,1.4462,1.4476,1.4483,1.4474,1.4472,1.4486,1.4486,1.4496,1.4496,1.4496,1.4496,0,1.4026,1.4058,1.4091,1.4136,1.4148,1.4164,1.4203,1.4221,1.4246,1.4275,1.4284,1.4324,1.4356,1.439,1.4434,1.445,1.4479,1.4487,1.4466,1.447,1.4475,1.4474,1.4486,1.4489,1.4496,1.4496,1.4496,0,1.4026,1.4043,1.409,1.4107,1.4128,1.4155,1.4176,1.4209,1.423,1.4271,1.4285,1.4319,1.4348,1.4399,1.4432,1.4466,1.4476,1.4477,1.4481,1.4472,1.4476,1.4475,1.4477,1.4476,1.4476,1.4476,1.4476,0,1.4024,1.4039,1.4067,1.41,1.4124,1.4152,1.4182,1.4194,1.4234,1.4255,1.4288,1.4311,1.4356,1.439,1.4428,1.4451,1.447,1.4474,1.4478,1.4469,1.4456,1.4464,1.4463,1.4474,1.4474,1.4474,1.4474,1.4474,1.4017,1.4033,1.4069,1.4099,1.4125,1.4152,1.4171,1.4199,1.4227,1.4266,1.4284,1.4317,1.4353,1.4406,1.4428,1.4455,1.4461,1.4466,1.4467,1.4468,1.4466,1.4452,1.4462,1.4463,1.4463,1.4463,1.4463,0,1.4015,1.4039,1.4067,1.4107,1.4132,1.4147,1.4181,1.42,1.4229,1.426,1.4288,1.4327,1.436,1.4396,1.4431,1.4446,1.4456,1.4454,1.4453,1.4459,1.4459,1.4452,1.4446,1.4446,1.4446,1.4446,1.4446,1.4446,1.4017,1.4046,1.4065,1.4108,1.4132,1.4164,1.4182,1.4208,1.4233,1.4274,1.4302,1.4325,1.4358,1.4396,1.4428,1.4437,1.4449,1.4445,1.4458,1.4457,1.4458,1.446,1.4454,1.4448,1.4448,1.4455,1.4455,1.4455]},{"header":{"parameterUnit":"m.s-1","parameterCategory":1,"la1":30.2991,"la2":30.254,"lo1":-89.0895,"lo2":-89.0444,"dy":0.0017,"dx":0.0017,"nx":28,"ny":28,"refTime":"2025-06-14T21:00:00:Z","depth":0,"parameterNumber":3,"parameterNumberName":"V-component_of_WINDS"},"data":[0,0,0,0,0,0,0,0,0,0,0,0,0,0,0,0,0,0,0,0,0,0,0,0,0,0,0,0,0,0,0,0,0,0,0,0,0,0,0,0,0,0,0,0,0,0,0,0,0,0,0,0,0,0,0,0,0,0,2.5832,2.5832,0,2.5833,2.5833,2.5833,2.5823,2.5822,2.5822,2.5822,2.5822,2.5823,2.5823,0,0,0,0,0,0,0,0,0,0,0,0,0,2.582,2.582,2.5832,2.5832,2.5832,2.5833,2.5833,2.5833,2.5823,2.5822,2.5822,2.5822,2.5822,2.5822,2.5823,0,0,0,0,0,0,0,0,0,0,0,0,0,2.5824,2.582,2.5832,2.5827,2.5827,2.5833,2.5833,2.5833,2.5823,2.5822,2.5822,2.5822,2.5822,2.5822,2.5823,2.5834,0,0,2.5824,2.5824,0,0,0,0,0,0,0,0,2.5823,2.5824,2.5828,2.5827,2.5827,2.5827,2.5829,2.5834,2.5823,2.5824,2.5822,2.5821,2.5824,2.5824,2.5826,2.5834,2.5834,2.5824,2.5824,2.5825,2.5825,0,0,0,0,0,0,0,2.5823,2.5824,2.5833,2.5828,2.5827,2.5824,2.5824,2.583,2.5827,2.5824,2.5823,2.5824,2.5824,2.5825,2.5826,2.5834,2.5824,2.5825,2.5825,2.5825,2.5852,2.5852,0,0,0,0,0,0,2.5824,2.5824,2.5833,2.5833,2.5824,2.5825,2.5825,2.5828,2.5827,2.5826,2.5824,2.5823,2.5825,2.5825,2.5826,2.5838,2.5825,2.5825,2.5825,2.5851,2.5852,2.5852,0,0,0,0,0,0,2.5824,2.5825,2.5833,2.5828,2.5829,2.5826,2.5829,2.5828,2.5829,2.5827,2.5826,2.5826,2.5824,2.5825,2.5832,2.5838,2.5825,2.5826,2.5851,2.5851,2.5852,2.5864,0,0,0,0,0,0,2.5823,2.5825,2.5829,2.5828,2.5829,2.5839,2.5829,2.5828,2.583,2.5829,2.5828,2.5828,2.5824,2.5831,2.5832,2.5838,2.5826,2.585,2.5851,2.5852,2.5863,2.5865,2.5867,0,0,0,0,0,2.5823,2.5832,2.5829,2.583,2.5835,2.584,2.584,2.5836,2.5831,2.5835,2.5833,2.5828,2.5837,2.5832,2.5833,2.5839,2.585,2.5851,2.5852,2.5862,2.5865,2.5867,0,0,0,0,0,0,2.5834,2.5832,2.5829,2.5838,2.5839,2.5838,2.5843,2.5839,2.5841,2.584,2.5835,2.5834,2.5842,2.5842,2.5836,2.585,2.5842,2.5844,2.585,2.5852,2.5854,2.5854,2.5826,0,0,0,0,0,2.5837,2.5842,2.584,2.5849,2.5849,2.5846,2.5848,2.5845,2.5846,2.5846,2.5845,2.5845,2.5848,2.585,2.5853,2.5863,2.5862,2.5868,2.587,2.5871,2.5872,2.5877,2.5879,2.5855,2.5855,2.5855,0,0,2.5845,2.5844,2.5847,2.5851,2.5851,2.5856,2.5847,2.5852,2.5855,2.5847,2.5853,2.5852,2.5852,2.5861,2.5864,2.5861,2.5879,2.5872,2.5874,2.5874,2.5878,2.588,2.5882,2.5856,2.5856,2.5856,0,0,2.586,2.5861,2.5868,2.5868,2.5869,2.5867,2.5868,2.5868,2.5867,2.5873,2.5867,2.5871,2.5876,2.5876,2.5877,2.5893,2.5888,2.5894,2.5903,2.5908,2.591,2.5911,2.5916,2.5918,2.5895,2.5895,2.5895,0,2.5869,2.5876,2.5872,2.5877,2.5879,2.5872,2.5878,2.5879,2.5881,2.5882,2.5877,2.5884,2.5884,2.5892,2.5896,2.5897,2.5898,2.5894,2.591,2.5911,2.5913,2.5918,2.592,2.5896,2.5896,2.5896,2.5896,0,2.5886,2.5891,2.5896,2.5898,2.59,2.5906,2.5903,2.5906,2.5902,2.5901,2.5907,2.5907,2.5909,2.5911,2.5908,2.5918,2.5916,2.5911,2.5903,2.5916,2.592,2.5922,2.5897,2.5897,2.5896,2.5896,0,0,2.5908,2.5908,2.591,2.591,2.591,2.5914,2.5919,2.5922,2.5924,2.5925,2.5929,2.5934,2.593,2.5931,2.5928,2.5932,2.5943,2.5926,2.5926,2.5929,2.5955,2.5958,2.596,2.594,2.5941,2.5941,2.5955,0,2.5922,2.5932,2.5929,2.5939,2.5943,2.5936,2.5941,2.5942,2.594,2.5943,2.5941,2.5945,2.5939,2.5939,2.5943,2.5941,2.5948,2.594,2.5944,2.5944,2.5943,2.5963,2.5966,2.5979,2.5956,2.5957,2.5957,0,2.594,2.5943,2.5953,2.5952,2.5954,2.5958,2.596,2.5963,2.5963,2.5962,2.5963,2.5959,2.5964,2.5957,2.5964,2.5958,2.596,2.5959,2.5959,2.5959,2.5951,2.5962,2.5983,2.5985,2.5959,2.5959,2.5959,0,2.5954,2.596,2.5967,2.5967,2.5967,2.597,2.597,2.597,2.5972,2.5973,2.5974,2.5977,2.5978,2.5979,2.5976,2.5971,2.5983,2.5975,2.5982,2.5982,2.5984,2.5984,2.6005,2.5986,2.5986,2.5986,2.5986,0,2.597,2.5977,2.5973,2.5977,2.5984,2.598,2.5987,2.5986,2.5986,2.599,2.5984,2.5988,2.5983,2.5986,2.5983,2.5989,2.599,2.5989,2.5988,2.5989,2.5989,2.5989,2.5988,2.5986,2.5986,2.5986,2.5986,0,2.5987,2.5985,2.5991,2.5991,2.5991,2.5996,2.5995,2.5998,2.5997,2.6001,2.6002,2.5999,2.6003,2.5999,2.6002,2.6001,2.6008,2.6006,2.6008,2.6007,2.6013,2.6013,2.6035,2.6037,2.6017,2.6017,2.6018,0,2.5997,2.6002,2.6002,2.6004,2.6004,2.6008,2.6009,2.6006,2.6008,2.6008,2.6012,2.6015,2.6017,2.6022,2.602,2.6022,2.602,2.6027,2.602,2.6021,2.6019,2.6019,2.6019,2.6029,2.6029,2.6029,2.6029,0,2.6015,2.6014,2.6016,2.6019,2.6021,2.6023,2.6024,2.6026,2.6022,2.6025,2.6028,2.603,2.6033,2.6035,2.6037,2.6037,2.6032,2.6032,2.6033,2.6034,2.6035,2.6034,2.6012,2.6031,2.6031,2.6031,2.6031,2.6031,2.6028,2.6032,2.6032,2.6036,2.6036,2.6038,2.6041,2.604,2.6042,2.6045,2.6043,2.6046,2.6047,2.6048,2.6049,2.6051,2.6048,2.605,2.6051,2.6051,2.6052,2.6035,2.6052,2.6052,2.6052,2.6052,2.6051,0,2.6045,2.6045,2.6048,2.605,2.6053,2.6049,2.605,2.6053,2.6056,2.6057,2.6059,2.6063,2.6065,2.6064,2.6066,2.6068,2.6067,2.6069,2.6069,2.6069,2.6055,2.6053,2.6071,2.6071,2.6071,2.6071,2.6071,2.6071,2.6054,2.606,2.6059,2.6066,2.6066,2.607,2.6071,2.6072,2.6072,2.6077,2.6079,2.6078,2.6078,2.608,2.6082,2.6081,2.6082,2.6086,2.6084,2.6071,2.607,2.6068,2.6066,2.6086,2.6086,2.6098,2.6098,2.6098]}]]